Time,TemperatureF,DewpointF,PressureIn,WindDirection,WindDirectionDegrees,WindSpeedMPH,WindSpeedGustMPH,Humidity,HourlyPrecipIn,Conditions,Clouds,dailyrainin,SoftwareType,DateUTC
2013-03-01 00:02:00,72.0,-99.9,30.20,NE,46,8.0,19.0,-999,-99.99,,,-99.99,,2013-03-01 10:02:00,
2013-03-01 00:12:00,72.0,-99.9,30.19,NNE,32,6.0,13.0,-999,-99.99,,,-99.99,,2013-03-01 10:12:00,
2013-03-01 00:22:00,72.0,-99.9,30.19,NE,55,6.0,13.0,-999,-99.99,,,-99.99,,2013-03-01 10:22:00,
2013-03-01 00:32:00,72.0,-99.9,30.20,NNE,16,4.0,10.0,-999,-99.99,,,-99.99,,2013-03-01 10:32:00,
2013-03-01 00:53:00,72.0,-99.9,30.20,ENE,59,4.0,16.0,-999,-99.99,,,-99.99,,2013-03-01 10:53:00,
2013-03-01 01:02:00,73.0,-99.9,30.20,ENE,62,9.0,18.0,-999,-99.99,,,-99.99,,2013-03-01 11:02:00,
2013-03-01 01:12:00,72.0,-99.9,30.20,East,79,2.0,13.0,-999,-99.99,,,-99.99,,2013-03-01 11:12:00,
2013-03-01 01:23:00,72.0,-99.9,30.20,NE,43,6.0,14.0,-999,-99.99,,,-99.99,,2013-03-01 11:23:00,
2013-03-01 01:32:00,72.0,-99.9,30.20,ENE,60,6.0,14.0,-999,-99.99,,,-99.99,,2013-03-01 11:32:00,
2013-03-01 01:42:00,72.0,-99.9,30.19,NE,37,6.0,17.0,-999,-99.99,,,-99.99,,2013-03-01 11:42:00,
2013-03-01 01:53:00,72.0,-99.9,30.19,NE,51,13.0,22.0,-999,-99.99,,,-99.99,,2013-03-01 11:53:00,
2013-03-01 02:02:00,72.0,-99.9,30.18,NE,54,4.0,13.0,-999,-99.99,,,-99.99,,2013-03-01 12:02:00,
2013-03-01 02:11:00,72.0,-99.9,30.18,NE,51,6.0,14.0,-999,-99.99,,,-99.99,,2013-03-01 12:11:00,
2013-03-01 02:22:00,72.0,-99.9,30.17,East,92,5.0,17.0,-999,-99.99,,,-99.99,,2013-03-01 12:22:00,
2013-03-01 02:33:00,72.0,-99.9,30.17,ENE,74,9.0,15.0,-999,-99.99,,,-99.99,,2013-03-01 12:33:00,
2013-03-01 02:42:00,72.0,-99.9,30.17,ENE,68,10.0,14.0,-999,-99.99,,,-99.99,,2013-03-01 12:42:00,
2013-03-01 02:52:00,72.0,-99.9,30.16,NE,44,7.0,15.0,-999,-99.99,,,-99.99,,2013-03-01 12:52:00,
2013-03-01 03:01:00,72.0,-99.9,30.16,ENE,63,6.0,14.0,-999,-99.99,,,-99.99,,2013-03-01 13:01:00,
2013-03-01 03:12:00,72.0,-99.9,30.15,NE,52,11.0,18.0,-999,-99.99,,,-99.99,,2013-03-01 13:12:00,
2013-03-01 03:22:00,72.0,-99.9,30.15,ENE,63,5.0,14.0,-999,-99.99,,,-99.99,,2013-03-01 13:22:00,
2013-03-01 03:32:00,72.0,-99.9,30.14,East,81,10.0,17.0,-999,-99.99,,,-99.99,,2013-03-01 13:32:00,
2013-03-01 03:42:00,71.0,-99.9,30.14,ENE,67,7.0,15.0,-999,-99.99,,,-99.99,,2013-03-01 13:42:00,
2013-03-01 03:52:00,71.0,-99.9,30.14,ENE,70,7.0,15.0,-999,-99.99,,,-99.99,,2013-03-01 13:52:00,
2013-03-01 04:02:00,72.0,-99.9,30.14,ENE,61,10.0,20.0,-999,-99.99,,,-99.99,,2013-03-01 14:02:00,
2013-03-01 04:12:00,71.0,-99.9,30.13,ENE,65,6.0,14.0,-999,-99.99,,,-99.99,,2013-03-01 14:12:00,
2013-03-01 04:22:00,71.0,-99.9,30.13,NNE,31,8.0,15.0,-999,-99.99,,,-99.99,,2013-03-01 14:22:00,
2013-03-01 04:32:00,72.0,-99.9,30.12,ENE,61,7.0,14.0,-999,-99.99,,,-99.99,,2013-03-01 14:32:00,
2013-03-01 04:42:00,72.0,-99.9,30.13,ENE,64,4.0,14.0,-999,-99.99,,,-99.99,,2013-03-01 14:42:00,
2013-03-01 04:52:00,72.0,-99.9,30.13,NE,56,9.0,14.0,-999,-99.99,,,-99.99,,2013-03-01 14:52:00,
2013-03-01 05:02:00,72.0,-99.9,30.12,NE,52,6.0,16.0,-999,-99.99,,,-99.99,,2013-03-01 15:02:00,
2013-03-01 05:11:00,72.0,-99.9,30.12,NNE,13,3.0,9.0,-999,-99.99,,,-99.99,,2013-03-01 15:11:00,
2013-03-01 05:21:00,71.0,-99.9,30.12,ESE,102,2.0,8.0,-999,-99.99,,,-99.99,,2013-03-01 15:21:00,
2013-03-01 05:32:00,71.0,-99.9,30.12,ENE,65,2.0,8.0,-999,-99.99,,,-99.99,,2013-03-01 15:32:00,
2013-03-01 05:42:00,71.0,-99.9,30.11,ESE,107,2.0,6.0,-999,-99.99,,,-99.99,,2013-03-01 15:42:00,
2013-03-01 05:52:00,72.0,-99.9,30.11,NNE,20,3.0,9.0,-999,-99.99,,,-99.99,,2013-03-01 15:52:00,
2013-03-01 06:01:00,71.0,-99.9,30.12,ENE,60,4.0,12.0,-999,-99.99,,,-99.99,,2013-03-01 16:01:00,
2013-03-01 06:11:00,71.0,-99.9,30.12,ENE,58,9.0,15.0,-999,-99.99,,,-99.99,,2013-03-01 16:11:00,
2013-03-01 06:22:00,71.0,-99.9,30.13,NNE,27,5.0,10.0,-999,-99.99,,,-99.99,,2013-03-01 16:22:00,
2013-03-01 06:32:00,72.0,-99.9,30.13,ENE,74,6.0,13.0,-999,-99.99,,,-99.99,,2013-03-01 16:32:00,
2013-03-01 06:42:00,72.0,-99.9,30.13,ENE,63,7.0,13.0,-999,-99.99,,,-99.99,,2013-03-01 16:42:00,
2013-03-01 06:52:00,71.0,-99.9,30.13,ESE,106,5.0,17.0,-999,-99.99,,,-99.99,,2013-03-01 16:52:00,
2013-03-01 07:01:00,72.0,-99.9,30.13,ENE,74,9.0,15.0,-999,-99.99,,,-99.99,,2013-03-01 17:01:00,
2013-03-01 07:11:00,72.0,-99.9,30.13,ENE,63,7.0,11.0,-999,-99.99,,,-99.99,,2013-03-01 17:11:00,
2013-03-01 07:21:00,72.0,-99.9,30.13,ESE,114,9.0,15.0,-999,-99.99,,,-99.99,,2013-03-01 17:21:00,
2013-03-01 07:32:00,72.0,-99.9,30.14,NE,47,7.0,12.0,-999,-99.99,,,-99.99,,2013-03-01 17:32:00,
2013-03-01 07:42:00,72.0,-99.9,30.14,NE,36,2.0,5.0,-999,-99.99,,,-99.99,,2013-03-01 17:42:00,
2013-03-01 07:52:00,72.0,-99.9,30.15,NNW,335,1.0,6.0,-999,-99.99,,,-99.99,,2013-03-01 17:52:00,
2013-03-01 08:02:00,72.0,-99.9,30.15,NE,55,5.0,11.0,-999,-99.99,,,-99.99,,2013-03-01 18:02:00,
2013-03-01 08:12:00,73.0,-99.9,30.16,ENE,68,4.0,11.0,-999,-99.99,,,-99.99,,2013-03-01 18:12:00,
2013-03-01 08:22:00,73.0,-99.9,30.16,NE,52,10.0,16.0,-999,-99.99,,,-99.99,,2013-03-01 18:22:00,
2013-03-01 08:32:00,73.0,-99.9,30.16,ENE,64,7.0,11.0,-999,-99.99,,,-99.99,,2013-03-01 18:32:00,
2013-03-01 08:42:00,73.0,-99.9,30.16,NE,48,3.0,9.0,-999,-99.99,,,-99.99,,2013-03-01 18:42:00,
2013-03-01 08:52:00,74.0,-99.9,30.16,NE,45,4.0,8.0,-999,-99.99,,,-99.99,,2013-03-01 18:52:00,
2013-03-01 09:02:00,73.0,-99.9,30.17,ENE,73,6.0,10.0,-999,-99.99,,,-99.99,,2013-03-01 19:02:00,
2013-03-01 09:11:00,73.0,-99.9,30.17,East,89,5.0,13.0,-999,-99.99,,,-99.99,,2013-03-01 19:11:00,
2013-03-01 09:22:00,73.0,-99.9,30.17,NE,54,7.0,15.0,-999,-99.99,,,-99.99,,2013-03-01 19:22:00,
2013-03-01 09:32:00,74.0,-99.9,30.17,ENE,57,7.0,14.0,-999,-99.99,,,-99.99,,2013-03-01 19:32:00,
2013-03-01 09:42:00,74.0,-99.9,30.17,ENE,57,7.0,14.0,-999,-99.99,,,-99.99,,2013-03-01 19:42:00,
2013-03-01 09:52:00,74.0,-99.9,30.18,NE,53,8.0,16.0,-999,-99.99,,,-99.99,,2013-03-01 19:52:00,
2013-03-01 10:01:00,74.0,-99.9,30.18,ESE,106,7.0,12.0,-999,-99.99,,,-99.99,,2013-03-01 20:01:00,
2013-03-01 10:11:00,74.0,-99.9,30.18,ENE,62,12.0,18.0,-999,-99.99,,,-99.99,,2013-03-01 20:11:00,
2013-03-01 10:22:00,74.0,-99.9,30.19,East,93,7.0,15.0,-999,-99.99,,,-99.99,,2013-03-01 20:22:00,
2013-03-01 10:32:00,74.0,-99.9,30.19,NE,46,8.0,15.0,-999,-99.99,,,-99.99,,2013-03-01 20:32:00,
2013-03-01 10:42:00,74.0,-99.9,30.19,East,81,6.0,11.0,-999,-99.99,,,-99.99,,2013-03-01 20:42:00,
2013-03-01 10:52:00,74.0,-99.9,30.19,NE,54,11.0,17.0,-999,-99.99,,,-99.99,,2013-03-01 20:52:00,
2013-03-01 11:02:00,74.0,-99.9,30.19,East,81,4.0,16.0,-999,-99.99,,,-99.99,,2013-03-01 21:02:00,
2013-03-01 11:11:00,74.0,-99.9,30.19,NNE,19,3.0,13.0,-999,-99.99,,,-99.99,,2013-03-01 21:11:00,
2013-03-01 11:22:00,74.0,-99.9,30.19,ENE,67,7.0,13.0,-999,-99.99,,,-99.99,,2013-03-01 21:22:00,
2013-03-01 11:32:00,75.0,-99.9,30.19,NE,42,9.0,13.0,-999,-99.99,,,-99.99,,2013-03-01 21:32:00,
2013-03-01 11:42:00,74.0,-99.9,30.19,NE,55,8.0,15.0,-999,-99.99,,,-99.99,,2013-03-01 21:42:00,
2013-03-01 11:52:00,75.0,-99.9,30.19,ENE,77,9.0,15.0,-999,-99.99,,,-99.99,,2013-03-01 21:52:00,
2013-03-01 12:01:00,75.0,-99.9,30.19,NNE,32,8.0,18.0,-999,-99.99,,,-99.99,,2013-03-01 22:01:00,
2013-03-01 12:12:00,74.0,-99.9,30.18,NE,44,12.0,19.0,-999,-99.99,,,-99.99,,2013-03-01 22:12:00,
2013-03-01 12:22:00,74.0,-99.9,30.18,ENE,65,11.0,20.0,-999,-99.99,,,-99.99,,2013-03-01 22:22:00,
2013-03-01 12:32:00,75.0,-99.9,30.18,ENE,65,10.0,18.0,-999,-99.99,,,-99.99,,2013-03-01 22:32:00,
2013-03-01 12:42:00,74.0,-99.9,30.17,NE,56,11.0,22.0,-999,-99.99,,,-99.99,,2013-03-01 22:42:00,
2013-03-01 12:52:00,74.0,-99.9,30.17,ENE,69,11.0,30.0,-999,-99.99,,,-99.99,,2013-03-01 22:52:00,
2013-03-01 13:01:00,75.0,-99.9,30.16,NE,42,12.0,19.0,-999,-99.99,,,-99.99,,2013-03-01 23:01:00,
2013-03-01 13:11:00,75.0,-99.9,30.16,ENE,65,9.0,18.0,-999,-99.99,,,-99.99,,2013-03-01 23:11:00,
2013-03-01 13:21:00,75.0,-99.9,30.16,NE,47,13.0,28.0,-999,-99.99,,,-99.99,,2013-03-01 23:21:00,
2013-03-01 13:32:00,74.0,-99.9,30.15,NE,50,14.0,21.0,-999,-99.99,,,-99.99,,2013-03-01 23:32:00,
2013-03-01 13:42:00,74.0,-99.9,30.15,NE,52,15.0,22.0,-999,-99.99,,,-99.99,,2013-03-01 23:42:00,
2013-03-01 13:52:00,74.0,-99.9,30.14,ENE,58,10.0,15.0,-999,-99.99,,,-99.99,,2013-03-01 23:52:00,
2013-03-01 14:02:00,75.0,-99.9,30.14,ENE,59,12.0,21.0,-999,-99.99,,,-99.99,,2013-03-02 00:02:00,
2013-03-01 14:12:00,75.0,-99.9,30.14,ENE,72,7.0,20.0,-999,-99.99,,,-99.99,,2013-03-02 00:12:00,
2013-03-01 14:22:00,75.0,-99.9,30.14,ENE,57,12.0,19.0,-999,-99.99,,,-99.99,,2013-03-02 00:22:00,
2013-03-01 14:32:00,75.0,-99.9,30.14,NE,47,7.0,16.0,-999,-99.99,,,-99.99,,2013-03-02 00:32:00,
2013-03-01 14:42:00,75.0,-99.9,30.14,NE,52,10.0,19.0,-999,-99.99,,,-99.99,,2013-03-02 00:42:00,
2013-03-01 14:52:00,75.0,-99.9,30.13,NE,55,11.0,14.0,-999,-99.99,,,-99.99,,2013-03-02 00:52:00,
2013-03-01 15:01:00,76.0,-99.9,30.13,ENE,63,8.0,15.0,-999,-99.99,,,-99.99,,2013-03-02 01:01:00,
2013-03-01 15:11:00,75.0,-99.9,30.12,ENE,68,9.0,20.0,-999,-99.99,,,-99.99,,2013-03-02 01:11:00,
2013-03-01 15:21:00,75.0,-99.9,30.12,ENE,58,10.0,15.0,-999,-99.99,,,-99.99,,2013-03-02 01:21:00,
2013-03-01 15:32:00,75.0,-99.9,30.11,NE,50,8.0,19.0,-999,-99.99,,,-99.99,,2013-03-02 01:32:00,
2013-03-01 15:42:00,74.0,-99.9,30.11,NNE,16,7.0,19.0,-999,-99.99,,,-99.99,,2013-03-02 01:42:00,
2013-03-01 15:52:00,74.0,-99.9,30.11,NE,49,7.0,16.0,-999,-99.99,,,-99.99,,2013-03-02 01:52:00,
2013-03-01 16:01:00,74.0,-99.9,30.11,NE,50,11.0,17.0,-999,-99.99,,,-99.99,,2013-03-02 02:01:00,
2013-03-01 16:11:00,74.0,-99.9,30.11,ENE,59,11.0,17.0,-999,-99.99,,,-99.99,,2013-03-02 02:11:00,
2013-03-01 16:22:00,75.0,-99.9,30.10,NE,52,8.0,18.0,-999,-99.99,,,-99.99,,2013-03-02 02:22:00,
2013-03-01 16:32:00,75.0,-99.9,30.10,NE,46,8.0,25.0,-999,-99.99,,,-99.99,,2013-03-02 02:32:00,
2013-03-01 16:42:00,75.0,-99.9,30.10,ENE,59,10.0,18.0,-999,-99.99,,,-99.99,,2013-03-02 02:42:00,
2013-03-01 16:52:00,74.0,-99.9,30.09,NE,35,10.0,24.0,-999,-99.99,,,-99.99,,2013-03-02 02:52:00,
2013-03-01 17:02:00,74.0,-99.9,30.10,ENE,59,10.0,25.0,-999,-99.99,,,-99.99,,2013-03-02 03:02:00,
2013-03-01 17:11:00,75.0,-99.9,30.09,ENE,66,9.0,16.0,-999,-99.99,,,-99.99,,2013-03-02 03:11:00,
2013-03-01 17:22:00,74.0,-99.9,30.10,ENE,57,9.0,18.0,-999,-99.99,,,-99.99,,2013-03-02 03:22:00,
2013-03-01 17:32:00,74.0,-99.9,30.10,ENE,57,16.0,27.0,-999,-99.99,,,-99.99,,2013-03-02 03:32:00,
2013-03-01 17:42:00,74.0,-99.9,30.10,NE,51,11.0,18.0,-999,-99.99,,,-99.99,,2013-03-02 03:42:00,
2013-03-01 17:53:00,74.0,-99.9,30.09,NE,41,9.0,20.0,-999,-99.99,,,-99.99,,2013-03-02 03:53:00,
2013-03-01 18:02:00,74.0,-99.9,30.10,NE,56,10.0,18.0,-999,-99.99,,,-99.99,,2013-03-02 04:02:00,
2013-03-01 18:12:00,73.0,-99.9,30.10,NE,55,10.0,17.0,-999,-99.99,,,-99.99,,2013-03-02 04:12:00,
2013-03-01 18:22:00,74.0,-99.9,30.10,NE,55,6.0,13.0,-999,-99.99,,,-99.99,,2013-03-02 04:22:00,
2013-03-01 18:32:00,73.0,-99.9,30.11,ESE,114,6.0,15.0,-999,-99.99,,,-99.99,,2013-03-02 04:32:00,
2013-03-01 18:42:00,73.0,-99.9,30.11,East,86,4.0,11.0,-999,-99.99,,,-99.99,,2013-03-02 04:42:00,
2013-03-01 18:52:00,73.0,-99.9,30.11,ENE,62,5.0,9.0,-999,-99.99,,,-99.99,,2013-03-02 04:52:00,
2013-03-01 19:02:00,73.0,-99.9,30.11,ENE,67,5.0,9.0,-999,-99.99,,,-99.99,,2013-03-02 05:02:00,
2013-03-01 19:12:00,73.0,-99.9,30.12,ENE,73,7.0,17.0,-999,-99.99,,,-99.99,,2013-03-02 05:12:00,
2013-03-01 19:23:00,73.0,-99.9,30.12,ENE,70,7.0,15.0,-999,-99.99,,,-99.99,,2013-03-02 05:23:00,
2013-03-01 19:32:00,73.0,-99.9,30.12,NE,44,4.0,11.0,-999,-99.99,,,-99.99,,2013-03-02 05:32:00,
2013-03-01 19:42:00,73.0,-99.9,30.12,East,90,4.0,9.0,-999,-99.99,,,-99.99,,2013-03-02 05:42:00,
2013-03-01 19:52:00,73.0,-99.9,30.13,NE,53,5.0,8.0,-999,-99.99,,,-99.99,,2013-03-02 05:52:00,
2013-03-01 20:02:00,73.0,-99.9,30.13,ESE,112,6.0,9.0,-999,-99.99,,,-99.99,,2013-03-02 06:02:00,
2013-03-01 20:11:00,73.0,-99.9,30.13,East,80,4.0,10.0,-999,-99.99,,,-99.99,,2013-03-02 06:11:00,
2013-03-01 20:22:00,72.0,-99.9,30.13,East,98,5.0,10.0,-999,-99.99,,,-99.99,,2013-03-02 06:22:00,
2013-03-01 20:32:00,72.0,-99.9,30.13,East,94,3.0,8.0,-999,-99.99,,,-99.99,,2013-03-02 06:32:00,
2013-03-01 20:42:00,73.0,-99.9,30.14,NNE,19,6.0,11.0,-999,-99.99,,,-99.99,,2013-03-02 06:42:00,
2013-03-01 20:52:00,72.0,-99.9,30.14,ESE,120,6.0,11.0,-999,-99.99,,,-99.99,,2013-03-02 06:52:00,
2013-03-01 21:02:00,72.0,-99.9,30.14,ENE,76,6.0,12.0,-999,-99.99,,,-99.99,,2013-03-02 07:02:00,
2013-03-01 21:11:00,72.0,-99.9,30.15,ENE,65,4.0,7.0,-999,-99.99,,,-99.99,,2013-03-02 07:11:00,
2013-03-01 21:22:00,73.0,-99.9,30.15,ESE,108,6.0,15.0,-999,-99.99,,,-99.99,,2013-03-02 07:22:00,
2013-03-01 21:32:00,72.0,-99.9,30.15,ENE,72,5.0,9.0,-999,-99.99,,,-99.99,,2013-03-02 07:32:00,
2013-03-01 21:42:00,73.0,-99.9,30.16,NNE,20,6.0,11.0,-999,-99.99,,,-99.99,,2013-03-02 07:42:00,
2013-03-01 21:52:00,72.0,-99.9,30.16,East,89,4.0,18.0,-999,-99.99,,,-99.99,,2013-03-02 07:52:00,
2013-03-01 22:01:00,72.0,-99.9,30.16,ENE,70,8.0,14.0,-999,-99.99,,,-99.99,,2013-03-02 08:01:00,
2013-03-01 22:11:00,72.0,-99.9,30.16,ENE,71,4.0,6.0,-999,-99.99,,,-99.99,,2013-03-02 08:11:00,
2013-03-01 22:22:00,72.0,-99.9,30.16,NE,53,5.0,8.0,-999,-99.99,,,-99.99,,2013-03-02 08:22:00,
2013-03-01 22:32:00,72.0,-99.9,30.16,ENE,60,7.0,19.0,-999,-99.99,,,-99.99,,2013-03-02 08:32:00,
2013-03-01 22:43:00,72.0,-99.9,30.17,ENE,59,4.0,12.0,-999,-99.99,,,-99.99,,2013-03-02 08:43:00,
2013-03-01 22:52:00,72.0,-99.9,30.17,ENE,60,6.0,11.0,-999,-99.99,,,-99.99,,2013-03-02 08:52:00,
2013-03-01 23:02:00,72.0,-99.9,30.17,ENE,62,6.0,11.0,-999,-99.99,,,-99.99,,2013-03-02 09:02:00,
2013-03-01 23:11:00,72.0,-99.9,30.17,NE,55,11.0,19.0,-999,-99.99,,,-99.99,,2013-03-02 09:11:00,
2013-03-01 23:22:00,72.0,-99.9,30.17,ENE,61,6.0,14.0,-999,-99.99,,,-99.99,,2013-03-02 09:22:00,
2013-03-01 23:32:00,72.0,-99.9,30.17,ENE,60,7.0,12.0,-999,-99.99,,,-99.99,,2013-03-02 09:32:00,
2013-03-01 23:42:00,72.0,-99.9,30.17,ENE,67,6.0,13.0,-999,-99.99,,,-99.99,,2013-03-02 09:42:00,
2013-03-01 23:52:00,72.0,-99.9,30.17,ENE,62,4.0,9.0,-999,-99.99,,,-99.99,,2013-03-02 09:52:00,